Showing default

HAWK-B, 43794

Orbit data source: Space-Track

HAWK-B, 43794 is a payload satellite owned by HawkEye 360 (US) in SSO that was launched on Mon, 03 Dec 2018 UTC via an FALCON 9 launch vehicle from the Air Force Western Test Range (AFWTR). Payload-class satellites include a variety of spacecraft equipped with specific instruments for various scientific and technological missions. These include communications satellites like Starlink; space stations such as the ISS; scientific satellites like the Hubble; Earth observation satellites from companies like Planet Labs, Umbra, and HawkEye 360; GPS; miniature CubeSats for education and research; and military/defense satellites.

Loading next visibility...
Identifier
43794, 2018-099AN
Orbit
SSO
Last TLE update
13 hours ago
Origin
Manufacturer
UTIAS-SFL
Mission
Operational Commercial Sigint
Bus & Motor
NEMO-V1, Unknown motor
Mass
12.75 kg wet, 12 kg dry
Launch date (UTC)
2018-12-03 (7 years ago)
Launch vehicle
FALCON 9
Launch site
Air Force Western Test Range (AFWTR)
Object type
Payload
Rocket body
Debris
Shape & HBR
Box + 2 Pan, 1 m
Radar Cross Section
0.348 m², Medium (>0.1 m² and < 1m²)

Expand to show TLE details & history

TLE from 13 hours ago
0 HAWK-B
1 43794U 18099AN  25181.85834322  .00003592  00000-0  19634-3 0  9991
2 43794  97.4449 234.2272 0025759  83.4651 276.9513 15.14637922359676
Epoch: 2025-06-30T20:36Z
TLE epoch observation values (Epoch: 2025-06-30T20:36:00.854Z)
Latitude
0.00004°
Longitude
6.06152°
Altitude
523.054 km
Speed
7.603 km/s
True Right ascension
15h 36m 54s
True Declination
0° 00' 00"
Sunlit
Object was in full shadow at epoch
Visualization orbit readout
Latitude
5.82967°
Longitude
-172.62986°
Altitude
525.312 km
Speed
7.601 km/s
Apparent Right ascension
06h 03m 50s
Apparent Declination
-21° 45' 47"
Sunlit
Object is in daylight
Visualization observer readout
Local Sidereal Time
21:41:15
Azimuth
85.235° E
Elevation
-40.77°
Doppler factor
1
Orbital elements
Apogee altitude
536.819 km
Perigee altitude
501.286 km
Semi-major axis
6,897.19 km
Eccentricity
0.00258
Inclination
97.4449°
RAAN
234.2272°
Arg. of periapsis
83.4651°
True anomaly
Unknown
Mean anomaly
276.9513°
Eccentric anomaly
Unknown
Mean motion
3.78909 °/min
Orbital period
95.01 mins
BSTAR
0.00019634
Loading maneuver chart data...
Loading SW <> Apogee altitude chart data...
Loading historical data...
Loading historical data...
Loading historical data...
Loading historical data...
Loading historical data...
Loading historical data...
Loading historical data...

HAWK-B Visibility forecast

Observer location: undefined°, undefined°

Span
Click to sort rows by Start time (UTC) header in descending order
Start Az.
Max El. time (UTC)
Max El. Az.
Max El.
End time (UTC)
End Az.
7 mins2025-07-01 16:10:52.599Z18.873° NNE2025-07-01 16:14:52.599Z137.93° SSE40.136°2025-07-01 16:17:52.599Z182.122° SSW
4 mins2025-07-02 02:52:52.599Z113.157° SE2025-07-02 02:54:52.599Z65.42° ENE23.568°2025-07-02 02:56:52.599Z23.104° NE
|